Location: Brachstadt
(48.6975°N, 10.6755°E)
Time: 07:49:31
(UTC+00:00)

Cosmos 1937 Rocket - Pass Details

Date: 18 September 2020
Orbit: 747 x 779 km, 74.0° (Epoch: 24 October)

Event Time Altitude Azimuth Distance (km) Brightness Sun altitude
Rises 18:54:17 0° 214° (SW) 3,234 6.9 -15.5°
Reaches altitude 10° 18:56:42 10° 219° (SW) 2,307 6.2 -15.9°
Maximum altitude 19:01:51 56° 297° (WNW) 907 4.2 -16.7°
Drops below altitude 10° 19:06:59 10° 16° (NNE) 2,301 6.1 -17.5°
Sets 19:09:24 0° 21° (NNE) 3,226 6.8 -17.8°
